Wind_Speed
55 55 55 55 55 55 56 56 57 56 56 56 57 57 58 59 58 57 58 58 58 57 56 56 54 53 52 51 50 49 48 47 46 45 45 45 44 44
53 54 55 55 55 55 56 57 57 58 57 57 57 58 59 60 59 58 58 59 59 58 57 56 56 56 55 54 53 52 51 50 49 49 48 47 47 46
51 52 53 54 55 55 55 56 56 57 58 57 58 58 58 59 59 59 59 59 59 59 59 58 57 57 56 55 54 53 53 52 51 50 50 49 49 49
49 50 51 52 54 54 54 55 56 56 57 57 57 58 58 59 59 59 59 59 59 59 59 59 59 58 57 56 55 54 53 53 52 51 51 50 50 50
49 49 50 51 51 52 54 55 56 57 57 58 57 58 58 59 60 60 60 59 59 59 59 59 59 59 58 57 56 55 54 54 53 53 52 52 52 52
49 49 50 50 50 51 52 53 55 56 57 58 57 58 58 59 60 61 61 60 59 59 59 59 58 58 58 57 56 56 56 55 54 54 54 54 54 53
49 50 51 51 50 50 51 52 54 55 56 56 56 57 57 58 59 61 62 61 60 59 59 59 58 58 58 57 57 57 56 55 55 55 55 55 55 54
49 49 50 50 51 51 51 51 52 53 54 55 55 55 55 56 58 60 62 62 62 60 60 59 59 58 58 58 58 57 56 56 56 56 56 55 56 55
50 49 49 49 50 51 51 51 52 53 54 54 54 53 53 54 56 58 60 62 61 61 61 60 60 59 58 58 58 58 58 57 57 57 56 56 56 56
48 48 48 48 49 50 50 51 52 52 52 53 53 52 53 53 54 55 57 59 60 60 60 60 59 60 60 59 59 59 59 58 58 58 57 57 57 57
45 46 46 46 46 47 48 49 50 51 51 52 52 53 53 53 53 54 55 57 57 57 57 57 58 58 59 58 58 58 59 59 59 58 58 57 57 57
43 44 45 44 44 45 45 46 47 47 48 49 50 51 51 52 52 52 53 53 54 55 56 56 56 57 57 57 57 58 59 59 58 59 59 59 58 58
42 42 43 43 43 43 43 43 44 45 46 46 47 48 49 49 50 50 50 51 51 52 53 55 55 56 57 57 57 57 57 57 57 57 57 57 58 58
38 39 40 40 41 42 42 41 41 42 43 44 45 45 46 47 48 48 48 48 49 50 52 53 54 55 55 55 55 55 55 55 55 56 55 56 57 58
35 35 36 38 39 39 40 40 40 40 40 41 41 41 42 44 46 47 48 48 48 48 49 50 51 52 53 54 53 53 53 53 53 54 55 55 56 56
34 34 35 36 36 37 37 37 37 37 37 38 38 39 41 42 44 45 46 47 48 47 48 49 50 51 51 51 51 51 51 51 51 52 53 53 54 54
32 33 33 33 34 35 36 36 36 37 37 37 37 38 39 41 42 43 44 45 46 46 46 48 50 50 50 50 51 51 50 50 51 51 51 50 51 52
31 31 31 32 32 33 33 34 34 35 35 35 36 36 38 39 40 41 41 41 42 44 45 47 48 48 49 48 48 48 48 50 50 50 49 48 48 48
30 30 30 30 31 31 31 31 32 32 33 33 34 35 36 37 38 39 40 39 40 41 43 45 46 46 46 46 46 46 46 47 47 47 47 46 46 46
28 28 28 29 30 30 30 31 31 31 32 33 33 34 35 35 36 37 38 38 38 39 40 41 42 42 43 43 43 44 44 44 44 44 44 44 44 44
27 27 27 27 28 28 29 30 31 31 32 32 32 32 32 32 33 35 35 36 36 36 36 37 38 39 40 41 41 41 42 42 42 42 41 42 41 41
26 26 25 26 26 27 26 27 28 29 30 30 30 29 29 29 30 31 32 33 33 34 34 35 35 37 38 38 38 38 38 39 39 39 39 40 39 39
24 24 25 25 25 25 25 25 25 26 27 28 27 27 27 27 27 27 28 29 31 31 32 33 33 34 34 34 34 34 34 34 35 36 37 38 37 37
Wind_Direction
259 259 258 257 257 256 255 254 252 250 249 249 249 249 249 248 248 248 248 248 248 249 250 251 252 253 253 254 254 255 257 258 259 261 262 263 265 266
259 258 257 257 257 256 255 254 253 252 250 249 249 249 249 248 249 249 248 248 248 249 249 251 251 252 252 253 254 254 256 258 259 260 262 263 264 265
258 258 258 257 257 257 256 255 253 252 251 250 249 249 249 249 248 248 248 248 248 249 249 249 250 251 252 253 253 254 255 257 259 260 262 263 264 265
259 258 259 258 257 257 256 255 254 253 253 251 249 248 248 248 248 247 247 248 248 248 249 250 251 252 252 253 253 254 255 257 258 260 262 263 264 264
259 259 259 259 258 257 256 255 255 254 253 252 250 249 248 247 247 247 247 247 247 248 249 250 251 251 252 252 253 254 255 256 258 260 261 262 263 264
259 259 259 258 258 257 256 256 255 255 254 253 252 250 249 248 248 248 247 247 247 248 248 249 251 251 252 252 253 254 255 256 257 259 260 262 263 263
259 259 258 258 258 258 257 256 256 254 254 253 253 252 250 249 249 248 247 247 247 247 248 249 250 251 252 252 252 253 255 256 257 259 260 261 263 264
258 258 258 259 258 258 257 256 255 254 253 253 253 253 252 252 250 249 248 248 248 248 248 248 249 250 251 252 252 252 254 256 257 258 259 261 263 264
259 258 258 258 257 257 256 256 256 255 254 254 253 253 253 253 252 251 250 249 249 248 247 248 249 250 251 251 252 253 254 256 257 258 259 261 263 264
258 258 258 257 257 257 256 256 256 255 255 255 254 253 253 252 252 251 250 249 248 248 248 249 249 250 251 251 252 253 255 256 258 259 260 261 263 264
257 256 257 258 257 256 257 257 256 255 255 254 253 253 253 252 251 250 250 249 249 248 248 249 249 250 250 251 253 253 254 256 258 259 260 261 263 264
258 256 256 257 256 256 257 257 256 255 255 254 253 253 252 252 251 251 250 250 249 248 249 249 249 249 250 251 252 254 255 256 258 259 260 261 262 264
261 259 257 256 255 255 256 257 256 255 254 253 252 252 251 250 250 250 250 250 250 249 249 249 248 249 251 251 252 254 255 257 258 259 260 261 262 263
263 260 258 256 255 254 254 254 255 255 254 252 252 251 251 251 250 250 250 250 250 249 249 249 249 250 250 252 253 253 255 256 258 259 260 261 263 264
263 261 259 257 255 255 255 253 253 253 253 253 253 252 251 251 251 250 249 250 250 249 249 249 249 250 250 251 252 253 254 256 258 259 260 262 264 264
262 262 260 258 255 254 254 254 253 254 255 254 253 252 251 251 251 250 249 250 250 250 250 250 250 251 251 251 252 253 255 255 257 259 260 262 263 264
264 263 262 259 256 255 255 254 254 255 255 254 253 251 251 251 250 249 250 250 249 248 249 250 249 250 251 253 253 253 254 255 257 259 260 262 263 265
265 263 262 259 258 256 256 256 255 255 255 254 254 254 252 251 250 249 250 250 250 249 249 249 250 251 251 252 253 254 254 255 257 258 260 262 263 264
266 263 261 259 258 256 254 254 254 254 253 253 254 255 254 252 250 250 249 250 250 250 250 250 250 250 251 251 252 253 255 256 257 259 261 262 263 264
265 263 260 259 257 256 255 254 254 255 255 255 255 256 254 253 251 250 250 251 250 250 250 250 249 250 250 250 251 253 254 256 257 259 261 262 264 264
262 262 260 258 257 257 256 256 256 257 256 256 256 255 254 254 253 250 250 250 250 250 250 250 251 251 250 251 251 252 255 256 258 260 262 263 264 264
261 260 259 258 256 256 256 256 255 255 255 256 256 253 253 254 254 251 249 249 249 251 252 253 253 253 253 252 252 254 256 258 260 262 263 264 265 265
263 261 260 260 258 255 253 253 252 253 255 255 253 252 252 252 251 250 250 250 251 253 254 254 253 253 254 253 254 255 257 259 260 262 264 267 268 268
Height
5592 5595 5598 5601 5603 5606 5609 5613 5618 5623 5630 5634 5637 5641 5644 5649 5653 5658 5662 5667 5672 5676 5680 5684 5688 5692 5696 5699 5702 5704 5707 5709 5711 5713 5715 5717 5718 5719
5577 5579 5582 5584 5587 5590 5593 5597 5600 5606 5612 5618 5621 5625 5628 5633 5637 5642 5646 5651 5656 5661 5665 5669 5673 5677 5681 5685 5688 5691 5694 5696 5699 5701 5703 5704 5706 5707
5562 5564 5566 5568 5571 5574 5577 5580 5584 5588 5594 5601 5604 5608 5612 5617 5621 5625 5630 5635 5640 5645 5650 5654 5658 5662 5666 5670 5673 5676 5680 5683 5685 5688 5690 5692 5693 5694
5547 5549 5551 5553 5556 5559 5561 5564 5568 5572 5576 5582 5587 5592 5596 5600 5605 5609 5614 5619 5624 5629 5634 5638 5642 5647 5651 5655 5658 5662 5666 5669 5672 5674 5676 5679 5680 5680
5533 5535 5537 5538 5541 5543 5546 5549 5552 5555 5559 5564 5570 5574 5579 5583 5588 5593 5598 5603 5608 5613 5618 5622 5626 5631 5635 5639 5643 5647 5651 5655 5658 5660 5662 5663 5665 5666
5518 5520 5522 5524 5526 5528 5531 5533 5536 5539 5543 5547 5553 5557 5562 5566 5571 5576 5582 5587 5592 5597 5601 5606 5610 5615 5619 5624 5629 5632 5636 5638 5641 5644 5646 5649 5650 5652
5503 5505 5507 5509 5511 5513 5515 5518 5520 5523 5527 5531 5536 5540 5546 5550 5555 5559 5564 5570 5575 5580 5585 5590 5596 5600 5604 5608 5612 5616 5620 5623 5626 5629 5631 5633 5635 5637
5488 5490 5492 5494 5496 5498 5500 5503 5505 5508 5512 5515 5520 5524 5530 5534 5537 5541 5546 5552 5560 5567 5569 5574 5578 5583 5588 5592 5596 5600 5604 5607 5610 5613 5616 5618 5620 5622
5472 5474 5477 5479 5480 5483 5485 5487 5490 5492 5496 5500 5504 5509 5513 5518 5521 5526 5530 5534 5542 5547 5551 5557 5562 5567 5572 5576 5580 5583 5587 5591 5594 5597 5599 5602 5604 5606
5456 5459 5461 5463 5465 5467 5469 5471 5474 5477 5481 5484 5489 5494 5496 5500 5504 5508 5512 5517 5523 5529 5534 5541 5546 5551 5555 5559 5563 5567 5571 5574 5578 5580 5583 5585 5587 5589
5442 5443 5445 5448 5450 5452 5454 5457 5459 5462 5465 5468 5472 5476 5480 5484 5488 5492 5496 5501 5507 5514 5518 5524 5530 5534 5538 5543 5547 5551 5554 5558 5561 5564 5566 5569 5571 5573
5428 5430 5432 5433 5435 5436 5438 5441 5444 5447 5450 5453 5456 5460 5464 5468 5472 5476 5481 5486 5491 5498 5503 5507 5513 5516 5522 5527 5531 5534 5537 5541 5544 5547 5550 5552 5554 5556
5414 5416 5418 5419 5421 5423 5424 5427 5430 5432 5435 5438 5441 5445 5448 5452 5456 5461 5466 5471 5476 5482 5487 5491 5496 5500 5505 5511 5515 5518 5521 5524 5527 5530 5532 5535 5537 5539
5401 5403 5404 5406 5407 5409 5411 5413 5416 5418 5421 5424 5427 5431 5434 5438 5442 5447 5452 5456 5460 5466 5470 5474 5480 5485 5490 5494 5499 5503 5505 5508 5511 5514 5516 5518 5520 5522
5390 5391 5392 5394 5395 5397 5399 5401 5403 5406 5408 5411 5415 5418 5422 5425 5428 5432 5437 5441 5446 5450 5455 5460 5464 5469 5474 5479 5484 5487 5490 5493 5495 5498 5500 5502 5504 5506
5380 5381 5382 5383 5384 5386 5388 5390 5392 5394 5397 5400 5403 5406 5409 5412 5415 5419 5423 5428 5432 5436 5440 5445 5449 5454 5459 5463 5468 5472 5475 5477 5479 5481 5484 5486 5488 5489
5370 5371 5372 5373 5374 5376 5378 5380 5381 5383 5385 5388 5391 5394 5397 5399 5403 5406 5410 5414 5418 5422 5427 5431 5435 5439 5443 5448 5452 5456 5459 5461 5464 5466 5468 5470 5472 5473
5360 5361 5362 5363 5364 5366 5368 5369 5371 5373 5375 5377 5380 5382 5385 5388 5391 5394 5397 5401 5405 5409 5413 5417 5420 5424 5429 5433 5437 5440 5443 5446 5448 5450 5452 5455 5457 5458
5351 5352 5352 5354 5355 5356 5358 5359 5361 5363 5366 5368 5370 5372 5374 5376 5379 5383 5385 5389 5392 5396 5400 5403 5407 5410 5415 5420 5424 5426 5429 5432 5434 5436 5438 5440 5443 5444
5342 5343 5343 5344 5345 5347 5348 5350 5352 5354 5356 5358 5360 5362 5363 5366 5368 5372 5375 5378 5381 5384 5387 5391 5394 5398 5403 5407 5411 5413 5415 5418 5420 5422 5424 5426 5428 5430
5334 5334 5335 5336 5337 5338 5340 5341 5343 5345 5346 5348 5350 5352 5354 5356 5358 5361 5364 5368 5371 5374 5377 5380 5383 5387 5390 5394 5398 5400 5402 5404 5406 5409 5411 5413 5415 5416
5326 5326 5327 5328 5329 5330 5331 5333 5334 5336 5337 5339 5341 5343 5345 5347 5349 5352 5355 5358 5361 5364 5367 5370 5372 5375 5379 5382 5386 5389 5391 5392 5394 5396 5398 5400 5401 5403
5318 5318 5319 5320 5320 5322 5323 5325 5326 5328 5329 5331 5332 5334 5336 5339 5341 5344 5346 5349 5352 5355 5357 5360 5363 5365 5369 5372 5375 5378 5380 5382 5383 5385 5387 5387 5389 5390